When you browse on this site, cookies collect data to enhance your experience and personalize the content and advertising you see.
Visit our Privacy Policy to learn more. By continuing to use the site, you agree to this use of cookies and data.
  • In Czech Republic
  • List of Countries
  • For 7 days
  • Water Temperature
  • Weather Map
  • Weather Widgets
  • user-avatar
    Login

    Hourly Weather Ordino

    Today, 26 May, Tuesday

    Time Temperature Precipitation Wind Pressure Humidity
    00:00 +9°C° 0 mm 1 mps 639 mmHg 87%
    01:00 +9°C° 0 mm 1 mps 639 mmHg 85%
    02:00 +8°C° 0 mm 1 mps 639 mmHg 82%
    03:00 +8°C° 0 mm 1 mps 638 mmHg 79%
    04:00 +9°C° 0 mm 1 mps 639 mmHg 76%
    05:00 +10°C° 0 mm 1 mps 639 mmHg 73%
    06:00 +12°C° 0 mm 1 mps 640 mmHg 65%
    07:00 +14°C° 0 mm 1 mps 641 mmHg 59%
    08:00 +16°C° 0 mm 1 mps 641 mmHg 53%
    09:00 +19°C° 0 mm 1 mps 642 mmHg 46%
    10:00 +20°C° 0 mm 1 mps 642 mmHg 45%
    11:00 +20°C° 0 mm 2 mps 643 mmHg 43%
    12:00 +21°C° 0 mm 2 mps 643 mmHg 41%
    13:00 +21°C° 0 mm 2 mps 643 mmHg 46%
    14:00 +20°C° 0 mm 2 mps 642 mmHg 50%
    15:00 +20°C° 0 mm 2 mps 642 mmHg 54%
    16:00 +18°C° 0.1 mm 2 mps 641 mmHg 64%
    17:00 +17°C° 0.1 mm 2 mps 640 mmHg 74%
    18:00 +15°C° 0.1 mm 1 mps 640 mmHg 84%
    19:00 +14°C° 0.1 mm 1 mps 640 mmHg 86%
    20:00 +13°C° 0.1 mm 1 mps 639 mmHg 89%
    21:00 +11°C° 0.1 mm 1 mps 639 mmHg 91%
    22:00 +10°C° 0 mm 1 mps 639 mmHg 86%
    23:00 +10°C° 0 mm 1 mps 638 mmHg 81%

    Tomorrow, 27 May, Wednesday

    Time Temperature Precipitation Wind Pressure Humidity
    00:00 +8°C° 0 mm 2 mps 638 mmHg 75%
    01:00 +8°C° 0 mm 2 mps 638 mmHg 71%
    02:00 +7°C° 0 mm 2 mps 638 mmHg 67%
    03:00 +7°C° 0 mm 2 mps 638 mmHg 62%
    04:00 +9°C° 0 mm 1 mps 638 mmHg 62%
    05:00 +10°C° 0 mm 1 mps 639 mmHg 62%
    06:00 +11°C° 0 mm 1 mps 639 mmHg 63%
    07:00 +14°C° 0 mm 1 mps 640 mmHg 55%
    08:00 +16°C° 0 mm 1 mps 641 mmHg 48%
    09:00 +19°C° 0 mm 1 mps 642 mmHg 40%
    10:00 +20°C° 0 mm 1 mps 643 mmHg 40%
    11:00 +20°C° 0 mm 2 mps 643 mmHg 39%
    12:00 +21°C° 0 mm 2 mps 643 mmHg 39%
    13:00 +20°C° 0.1 mm 2 mps 642 mmHg 46%
    14:00 +19°C° 0.1 mm 2 mps 642 mmHg 53%
    15:00 +18°C° 0.1 mm 2 mps 642 mmHg 60%
    16:00 +17°C° 0.2 mm 2 mps 641 mmHg 66%
    17:00 +16°C° 0.2 mm 1 mps 641 mmHg 73%
    18:00 +15°C° 0.2 mm 1 mps 641 mmHg 79%
    19:00 +13°C° 0 mm 1 mps 640 mmHg 83%
    20:00 +12°C° 0 mm 1 mps 640 mmHg 87%
    21:00 +11°C° 0 mm 1 mps 640 mmHg 92%
    22:00 +10°C° 0 mm 1 mps 640 mmHg 92%
    23:00 +10°C° 0 mm 1 mps 639 mmHg 92%

    Day after tomorrow, 28 May, Thursday

    Time Temperature Precipitation Wind Pressure Humidity
    00:00 +10°C° 0 mm 1 mps 639 mmHg 93%
    01:00 +9°C° 0 mm 1 mps 639 mmHg 92%
    02:00 +9°C° 0 mm 1 mps 639 mmHg 92%
    03:00 +9°C° 0 mm 1 mps 639 mmHg 92%
    04:00 +10°C° 0 mm 1 mps 639 mmHg 90%
    05:00 +11°C° 0 mm 1 mps 639 mmHg 87%
    06:00 +12°C° 0 mm 1 mps 639 mmHg 85%
    07:00 +14°C° 0 mm 1 mps 640 mmHg 74%
    08:00 +16°C° 0 mm 1 mps 641 mmHg 63%
    09:00 +19°C° 0 mm 1 mps 642 mmHg 53%
    10:00 +19°C° 0 mm 2 mps 641 mmHg 52%
    11:00 +19°C° 0 mm 2 mps 641 mmHg 51%
    12:00 +20°C° 0 mm 2 mps 641 mmHg 50%
    13:00 +19°C° 0.4 mm 2 mps 640 mmHg 57%
    14:00 +19°C° 0.4 mm 1 mps 639 mmHg 63%
    15:00 +18°C° 0.4 mm 1 mps 639 mmHg 70%
    16:00 +16°C° 0.4 mm 1 mps 638 mmHg 74%
    17:00 +16°C° 0.4 mm 1 mps 638 mmHg 77%
    18:00 +14°C° 0.4 mm 0 mps 638 mmHg 80%
    19:00 +14°C° 0 mm 1 mps 637 mmHg 84%
    20:00 +12°C° 0 mm 1 mps 637 mmHg 89%
    21:00 +11°C° 0 mm 1 mps 637 mmHg 93%
    22:00 +10°C° 0 mm 1 mps 636 mmHg 89%
    23:00 +10°C° 0 mm 1 mps 636 mmHg 85%

    29 May, Friday

    Time Temperature Precipitation Wind Pressure Humidity
    00:00 +9°C° 0 mm 1 mps 636 mmHg 81%
    01:00 +9°C° 0 mm 1 mps 635 mmHg 76%
    02:00 +9°C° 0 mm 1 mps 635 mmHg 71%
    03:00 +8°C° 0 mm 1 mps 634 mmHg 66%
    04:00 +9°C° 0 mm 1 mps 635 mmHg 65%
    05:00 +11°C° 0 mm 1 mps 635 mmHg 64%
    06:00 +12°C° 0 mm 1 mps 636 mmHg 62%
    07:00 +14°C° 0 mm 1 mps 636 mmHg 53%
    08:00 +18°C° 0 mm 1 mps 637 mmHg 43%
    09:00 +20°C° 0 mm 1 mps 638 mmHg 34%
    10:00 +21°C° 0 mm 1 mps 638 mmHg 33%
    11:00 +22°C° 0 mm 1 mps 638 mmHg 32%
    12:00 +23°C° 0 mm 2 mps 638 mmHg 31%
    13:00 +23°C° 0 mm 2 mps 638 mmHg 35%
    14:00 +21°C° 0 mm 2 mps 637 mmHg 38%
    15:00 +21°C° 0 mm 2 mps 637 mmHg 41%
    16:00 +21°C° 0.2 mm 1 mps 636 mmHg 51%
    17:00 +19°C° 0.2 mm 1 mps 635 mmHg 62%
    18:00 +18°C° 0.2 mm 1 mps 635 mmHg 72%
    19:00 +15°C° 0 mm 1 mps 634 mmHg 77%
    20:00 +13°C° 0 mm 1 mps 634 mmHg 82%
    21:00 +12°C° 0 mm 1 mps 633 mmHg 87%
    22:00 +11°C° 0 mm 1 mps 633 mmHg 87%
    23:00 +11°C° 0 mm 1 mps 633 mmHg 87%

    30 May, Saturday

    Time Temperature Precipitation Wind Pressure Humidity
    00:00 +11°C° 0 mm 1 mps 633 mmHg 86%
    01:00 +10°C° 0 mm 1 mps 632 mmHg 83%
    02:00 +10°C° 0 mm 1 mps 632 mmHg 81%
    03:00 +10°C° 0 mm 1 mps 632 mmHg 78%
    04:00 +11°C° 0 mm 1 mps 632 mmHg 76%
    05:00 +11°C° 0 mm 1 mps 633 mmHg 73%
    06:00 +12°C° 0 mm 1 mps 634 mmHg 71%
    07:00 +15°C° 0 mm 1 mps 634 mmHg 61%
    08:00 +18°C° 0 mm 1 mps 635 mmHg 51%
    09:00 +20°C° 0 mm 1 mps 636 mmHg 41%
    10:00 +21°C° 0 mm 1 mps 637 mmHg 40%
    11:00 +21°C° 0 mm 2 mps 637 mmHg 39%
    12:00 +21°C° 0 mm 2 mps 637 mmHg 37%
    13:00 +21°C° 0.1 mm 2 mps 637 mmHg 44%
    14:00 +20°C° 0.1 mm 2 mps 636 mmHg 51%
    15:00 +20°C° 0.1 mm 2 mps 636 mmHg 57%
    16:00 +18°C° 0.2 mm 2 mps 635 mmHg 64%
    17:00 +18°C° 0.2 mm 1 mps 635 mmHg 71%
    18:00 +16°C° 0.2 mm 1 mps 635 mmHg 78%
    19:00 +15°C° 0 mm 1 mps 634 mmHg 83%
    20:00 +13°C° 0 mm 1 mps 634 mmHg 87%
    21:00 +12°C° 0 mm 1 mps 634 mmHg 92%
    22:00 +12°C° 0 mm 1 mps 634 mmHg 91%
    23:00 +11°C° 0 mm 1 mps 634 mmHg 91%

    31 May, Sunday

    Time Temperature Precipitation Wind Pressure Humidity
    00:00 +11°C° 0 mm 1 mps 633 mmHg 91%
    01:00 +11°C° 0 mm 1 mps 633 mmHg 90%
    02:00 +11°C° 0 mm 1 mps 633 mmHg 89%
    03:00 +11°C° 0 mm 1 mps 633 mmHg 88%
    04:00 +12°C° 0 mm 1 mps 633 mmHg 85%
    05:00 +13°C° 0 mm 1 mps 634 mmHg 82%
    06:00 +14°C° 0 mm 1 mps 634 mmHg 79%
    07:00 +16°C° 0 mm 1 mps 635 mmHg 69%
    08:00 +19°C° 0 mm 1 mps 636 mmHg 58%
    09:00 +21°C° 0 mm 1 mps 636 mmHg 48%
    10:00 +22°C° 0 mm 1 mps 636 mmHg 45%
    11:00 +23°C° 0 mm 2 mps 636 mmHg 42%
    12:00 +24°C° 0 mm 2 mps 637 mmHg 39%
    13:00 +23°C° 0.2 mm 2 mps 636 mmHg 45%
    14:00 +21°C° 0.2 mm 2 mps 635 mmHg 50%
    15:00 +20°C° 0.2 mm 2 mps 635 mmHg 55%
    16:00 +20°C° 0.6 mm 1 mps 634 mmHg 63%
    17:00 +19°C° 0.6 mm 1 mps 634 mmHg 71%
    18:00 +18°C° 0.6 mm 1 mps 633 mmHg 78%
    19:00 +16°C° 0.1 mm 1 mps 633 mmHg 80%
    20:00 +15°C° 0.1 mm 1 mps 633 mmHg 83%
    21:00 +14°C° 0.1 mm 1 mps 633 mmHg 85%
    22:00 +14°C° 0.2 mm 1 mps 633 mmHg 85%
    23:00 +13°C° 0.2 mm 1 mps 633 mmHg 85%
    Show more